SCP
0 0 0 0 0 0 0 0 0 0 0 0 0 0 0 0 0 1 1 2 3 3 4 4 6 9 9 7 5 3 3 3 3 3 3 3 3 3 3 2 2 2 2 2
0 0 0 0 0 0 0 0 0 0 0 0 0 0 0 0 0 0 1 2 3 3 3 3 5 8 8 6 4 3 3 3 3 3 3 3 3 3 3 2 2 2 1 1
0 0 0 0 0 0 0 0 0 0 0 0 0 0 0 0 0 0 1 1 2 3 2 2 4 7 8 6 3 2 3 3 3 3 3 3 2 2 2 2 2 1 1 0
0 0 0 0 0 0 0 0 0 0 0 0 0 0 0 0 0 0 0 1 2 2 1 1 2 6 7 6 3 2 2 3 3 3 3 3 2 2 2 2 1 1 0 0
0 0 0 0 0 0 0 0 0 0 0 0 0 0 0 0 0 0 0 0 1 1 1 1 2 4 6 5 3 2 2 2 3 3 3 2 2 1 1 1 1 1 0 0
0 0 0 0 0 0 0 0 0 0 0 0 0 0 0 0 0 0 0 0 0 1 1 0 1 4 6 5 3 2 2 2 2 2 2 2 2 1 1 1 1 1 0 0
0 0 0 0 0 0 0 0 0 0 0 0 0 0 0 0 0 0 0 0 0 1 1 0 2 4 6 5 3 2 2 2 2 2 2 2 1 1 1 1 1 1 0 0
0 0 0 0 0 0 0 0 0 0 0 0 0 0 0 0 0 0 0 0 1 1 1 0 2 4 5 4 2 2 2 2 2 2 2 2 2 1 1 1 1 1 0 0
0 0 0 0 0 0 0 0 0 0 0 0 0 0 0 0 0 0 0 0 1 1 1 1 2 4 5 3 2 1 2 2 2 2 2 2 2 2 1 1 1 1 0 0
0 0 0 0 0 0 0 0 0 0 0 0 0 0 0 0 0 0 0 0 1 1 1 1 2 3 4 2 1 1 1 2 2 2 2 2 2 2 1 1 1 1 0 0
0 0 0 0 0 0 0 0 0 0 0 0 0 0 0 0 0 0 0 0 0 0 0 1 2 3 2 1 1 0 1 1 1 2 2 2 2 2 2 1 1 1 1 0
0 0 0 0 0 0 0 0 0 0 0 0 0 0 0 0 0 0 0 0 0 0 0 1 1 2 1 1 0 0 0 0 1 1 1 2 2 2 2 2 1 1 1 0
0 0 0 0 0 0 0 0 0 0 0 0 0 0 0 0 0 0 0 0 0 0 1 1 1 1 1 0 0 0 0 0 0 0 1 1 2 2 2 2 1 1 1 0
0 0 0 0 0 0 0 0 0 0 0 0 0 0 0 0 0 0 0 0 0 0 0 1 1 0 0 0 0 0 0 0 0 0 0 1 1 2 2 2 1 1 1 0
0 0 0 0 0 0 0 0 0 0 0 0 0 0 0 0 0 0 0 0 0 0 0 0 0 0 0 0 0 0 0 0 0 0 0 0 1 2 2 2 1 1 1 0
0 0 0 0 0 0 0 0 0 0 0 0 0 0 0 0 0 0 0 0 0 0 0 0 0 0 0 0 0 0 0 0 0 0 0 0 1 1 2 2 1 1 0 0
0 0 0 0 0 0 0 0 0 0 0 0 0 0 0 0 0 0 0 0 0 0 0 0 0 0 0 0 0 0 0 0 0 0 0 1 1 1 2 1 1 1 0 0
0 0 0 0 0 0 0 0 0 0 0 0 0 0 0 0 0 0 0 0 0 0 0 0 0 0 0 0 0 0 0 0 0 0 0 1 1 1 1 1 1 0 0 0
0 0 0 0 0 0 0 0 0 0 0 0 0 0 0 0 0 0 0 0 0 0 0 0 0 0 0 0 0 0 0 0 0 0 0 1 1 1 1 1 1 0 0 0
0 0 0 0 0 0 0 0 0 0 0 0 0 0 0 0 0 0 0 0 0 0 0 0 0 0 0 0 0 0 0 0 0 0 0 0 1 1 1 1 0 0 0 0
0 0 0 0 0 0 0 0 0 0 0 0 0 0 0 0 0 0 0 0 0 0 0 0 0 0 0 0 0 0 0 0 0 0 0 0 0 0 0 0 0 0 0 0
0 0 0 0 0 0 0 0 0 0 0 0 0 0 0 0 0 0 0 0 0 0 0 0 0 0 0 0 0 0 0 0 0 0 0 0 0 0 0 0 0 0 0 0
0 0 0 0 0 0 0 0 0 0 0 0 0 0 0 0 0 0 0 0 0 0 0 0 0 0 0 0 0 0 0 0 0 0 0 0 0 0 0 0 0 0 0 0
0 0 0 0 0 0 0 0 0 0 0 0 0 0 0 0 0 0 0 0 0 0 0 0 0 0 0 0 0 0 0 0 0 0 0 0 0 0 0 0 0 0 0 0
0 0 0 0 0 0 0 0 0 0 0 0 0 0 0 0 0 0 0 0 0 0 0 0 0 0 0 0 0 0 0 0 0 0 0 0 0 0 0 0 0 0 0 0
0 0 0 0 0 0 0 0 0 0 0 0 0 0 0 0 0 0 0 0 0 0 0 0 0 0 0 0 0 0 0 0 0 0 0 0 0 0 0 0 0 0 0 0
Wind_Speed
0 0 2 3 4 6 6 7 9 10 7 6 9 11 9 7 5 4 2 2 3 3 1 2 2 3 3 3 3 3 3 2 2 3 2 2 2 2 2 2 3 3 2 2
1 1 4 4 5 6 8 7 7 8 8 8 9 11 9 7 4 3 3 3 2 2 1 2 2 3 3 3 4 4 3 3 2 2 2 2 2 2 2 2 2 3 3 2
2 3 4 5 5 6 7 6 6 8 10 8 7 7 6 4 2 2 3 3 3 3 2 2 2 2 3 3 4 3 3 3 2 2 3 2 2 2 1 2 2 2 3 3
3 3 4 5 5 6 6 6 7 8 6 4 3 5 5 4 4 3 3 2 3 2 2 2 2 2 2 3 3 3 3 3 3 3 3 5 3 2 2 2 2 2 2 3
3 4 5 5 5 6 5 7 8 8 6 5 5 4 5 2 4 4 3 3 3 2 2 2 2 2 2 2 3 3 4 3 3 3 3 4 3 2 1 2 3 2 2 2
4 2 3 4 5 5 6 6 6 5 2 4 4 4 4 1 3 2 2 2 2 2 2 2 2 3 3 2 2 3 4 3 3 3 3 3 3 3 3 2 2 2 1 1
3 1 0 2 4 3 4 3 2 1 1 4 2 2 3 2 2 2 1 1 1 1 2 2 2 2 3 3 2 2 3 2 2 3 3 3 3 3 4 3 2 2 2 2
4 3 1 2 2 3 3 2 1 2 3 3 1 3 1 3 4 4 4 1 1 2 1 1 2 2 2 2 2 2 2 2 2 2 2 2 2 2 2 2 2 2 2 2
4 4 3 3 3 2 2 1 1 3 4 3 4 2 0 6 6 6 6 6 3 3 2 1 2 2 2 2 2 2 2 2 1 1 1 2 2 2 2 2 1 1 1 2
3 5 5 2 1 2 3 2 1 1 3 4 3 1 2 5 5 6 6 6 5 5 5 4 3 2 2 2 1 1 2 1 2 2 1 1 1 1 2 2 1 1 1 1
3 3 4 2 1 1 1 0 1 2 2 3 3 2 3 3 4 4 5 5 5 5 4 3 3 2 3 2 2 1 1 1 1 1 1 1 1 1 1 1 2 2 1 2
2 2 4 3 1 2 1 1 1 1 3 3 3 3 2 3 4 4 5 5 5 5 5 4 4 3 3 2 2 2 1 0 0 1 1 1 1 1 1 1 1 1 2 2
2 1 4 2 1 3 2 3 2 1 2 2 3 4 2 4 4 5 5 6 5 5 4 4 4 3 3 2 2 1 1 0 1 1 1 1 1 1 1 0 0 1 2 2
2 2 4 4 4 3 4 4 3 1 2 3 5 6 7 8 7 7 6 6 5 5 5 4 4 4 3 3 2 2 1 1 1 1 1 1 0 1 0 0 0 0 1 2
1 3 5 8 8 6 5 6 4 4 5 5 6 6 8 8 6 6 6 6 6 6 6 5 4 4 4 3 3 3 2 1 1 1 1 0 1 1 1 1 1 1 0 1
1 3 4 6 6 6 7 7 6 7 7 8 8 8 7 7 6 6 6 7 6 6 6 5 5 4 4 4 3 3 2 2 1 1 1 1 1 2 1 1 1 1 0 0
1 2 3 4 4 5 6 6 5 4 3 3 6 7 7 8 7 6 6 6 6 6 6 5 5 4 4 3 3 3 2 2 1 1 1 2 2 2 2 2 1 1 1 1
2 2 3 4 3 5 4 1 1 3 3 3 4 6 7 7 6 4 5 6 6 7 6 5 4 4 3 3 3 3 2 1 1 1 1 1 1 1 1 1 1 1 1 1
3 3 3 2 4 7 3 1 1 2 4 3 5 7 7 8 5 3 6 6 6 6 5 4 4 3 3 3 3 3 2 2 1 1 1 1 1 1 1 1 1 1 0 0
1 1 2 3 3 5 2 2 2 1 4 4 4 5 6 7 4 4 7 7 6 6 5 4 3 3 3 3 3 3 2 2 2 2 2 1 0 0 0 1 1 1 0 0
1 2 4 5 5 6 2 1 1 1 5 5 4 3 4 3 3 5 7 6 6 6 5 4 4 3 3 3 2 2 2 3 2 2 2 2 1 1 0 1 1 1 1 0
4 4 4 3 5 7 1 2 2 3 3 4 4 3 3 4 5 5 5 5 6 6 5 4 3 3 3 3 2 2 3 3 3 2 2 2 2 1 1 1 1 1 1 0
5 5 3 5 6 2 3 3 2 2 3 4 4 4 3 4 4 5 5 5 5 5 5 4 3 3 3 3 2 2 3 3 3 2 2 2 2 2 1 1 1 1 1 0
4 2 3 5 6 3 3 3 2 2 3 4 4 4 3 4 4 4 4 4 4 4 4 3 3 3 3 3 3 2 2 2 2 2 2 2 2 2 2 1 1 1 1 1
4 3 3 6 5 5 4 3 2 3 3 3 4 4 3 3 4 4 4 4 3 4 3 3 2 2 2 3 3 3 2 2 2 2 2 3 2 2 2 2 2 2 1 1
4 6 6 6 3 3 4 3 3 3 3 3 3 4 3 3 4 3 3 3 3 3 3 3 2 2 2 2 3 3 2 2 2 2 2 2 2 2 2 2 3 4 3 4
Wind_Direction
273 323 298 294 284 284 290 279 283 291 295 280 266 271 275 274 263 263 245 227 247 243 175 127 128 147 139 140 139 143 136 139 140 139 145 162 152 144 138 142 148 153 150 150
259 277 297 298 297 296 291 282 284 298 306 291 268 267 267 263 251 250 250 243 241 263 227 150 151 159 152 160 163 149 144 150 159 165 157 161 158 151 149 140 144 156 160 165
304 323 321 308 302 290 286 281 294 300 310 285 277 270 244 241 225 239 248 236 237 219 217 185 158 166 164 174 168 154 152 150 149 148 128 117 106 113 123 147 172 171 165 164
327 335 321 312 310 305 286 300 296 294 295 284 271 277 257 228 220 230 248 245 247 215 190 166 146 165 176 175 158 153 151 145 146 152 147 146 156 163 190 180 178 175 166 162
311 336 333 322 323 321 299 305 287 275 272 282 258 251 275 217 230 229 234 240 239 208 176 167 153 163 158 148 154 158 152 151 151 154 155 157 159 151 147 161 167 166 161 163
272 301 327 324 320 308 309 303 286 259 244 267 243 227 280 241 253 245 232 232 218 199 165 155 151 146 142 129 139 151 149 154 159 155 163 164 156 151 154 167 162 170 170 174
307 230 9 330 321 317 329 335 341 328 230 248 231 229 266 14 33 33 6 241 221 169 131 149 148 147 142 141 145 139 140 152 166 161 169 172 163 166 173 171 174 183 180 187
312 294 41 347 334 314 303 326 321 293 279 302 299 237 283 31 46 38 26 21 84 74 68 85 122 137 138 139 144 136 137 146 160 166 171 169 163 164 178 189 179 191 191 192
317 298 328 331 331 324 301 280 301 294 288 274 254 235 132 28 32 23 18 14 24 30 29 36 76 106 121 133 141 157 143 146 149 166 163 165 167 176 177 186 159 177 172 181
309 294 292 315 310 285 291 319 340 290 304 291 268 262 342 7 7 10 13 7 4 14 18 21 42 84 90 102 108 124 123 166 159 160 171 161 170 181 172 156 158 161 159 167
303 281 288 285 233 284 250 297 275 269 278 288 294 306 19 24 21 16 8 3 357 8 9 15 23 56 89 87 91 91 82 58 137 147 132 94 96 124 136 157 181 170 167 174
328 292 281 272 360 8 309 273 200 239 272 263 283 288 6 44 41 29 15 5 1 7 11 23 29 43 63 78 84 86 79 110 111 119 98 82 83 82 106 171 183 160 174 182
339 305 300 289 6 12 334 318 307 277 276 265 261 271 5 17 17 21 14 359 357 5 17 30 32 34 42 41 45 57 102 108 53 48 80 87 89 94 118 174 184 165 169 175
322 241 237 265 295 300 292 300 292 235 245 265 251 275 316 338 346 2 6 359 0 11 16 26 27 24 27 24 17 24 36 49 61 60 59 63 79 87 109 91 115 160 168 161
325 261 259 272 279 281 280 284 269 245 247 255 278 282 308 327 336 352 3 5 7 9 9 9 16 17 16 21 21 15 10 21 33 74 64 17 28 53 66 63 48 27 200 157
315 278 288 274 260 269 280 285 273 260 261 264 279 287 318 333 349 6 10 3 1 2 2 3 9 13 10 11 12 6 356 358 22 34 24 31 50 48 48 53 67 52 27 78
235 265 282 277 312 318 278 263 246 244 255 268 271 294 331 339 346 352 359 2 357 356 1 0 360 359 358 1 7 354 342 351 22 35 27 42 42 37 29 26 53 61 62 68
208 255 260 287 325 259 239 9 278 244 266 301 307 328 339 332 327 349 17 4 357 354 352 349 348 345 349 1 3 344 347 358 24 42 49 46 36 34 33 35 28 29 49 87
205 212 255 267 269 269 263 340 3 275 282 327 314 321 331 332 330 357 17 11 354 342 338 332 334 337 351 4 355 348 358 14 39 40 31 12 24 37 37 38 19 11 86 108
350 198 232 250 259 263 285 14 359 4 282 340 330 321 332 346 339 318 348 348 343 342 341 340 347 1 8 0 0 9 9 24 21 5 349 343 13 65 43 42 17 350 339 348
200 218 225 241 252 265 300 341 56 136 274 330 334 326 331 319 287 304 328 335 339 340 343 349 356 4 1 1 10 12 11 7 353 351 351 360 14 34 60 57 33 18 359 347
195 203 206 212 232 254 72 105 178 246 314 322 323 328 320 311 314 322 328 334 341 343 348 354 358 357 0 6 13 10 358 351 356 358 5 5 5 5 22 60 37 25 9 338
206 204 204 210 226 249 168 198 235 296 302 308 315 318 312 310 311 317 322 329 334 337 341 346 351 353 4 7 8 2 341 353 4 9 10 6 5 17 23 36 33 18 8 357
224 196 234 260 262 265 236 245 277 302 299 306 313 309 307 299 304 312 318 322 327 333 336 339 346 353 359 2 359 350 344 359 15 10 5 6 10 14 16 1 358 13 349 325
229 185 226 252 272 291 256 247 276 296 298 300 303 301 297 297 302 309 314 317 320 323 327 331 334 341 344 350 351 352 353 7 22 14 4 3 6 8 11 8 4 349 340 317
206 198 206 234 230 231 272 289 283 282 285 291 295 303 310 304 299 307 308 312 313 317 325 328 331 334 336 346 345 347 350 2 24 11 3 0 1 1 4 9 8 7 353 354